{"data":{"norad_id":61190,"intl_designator":"2024-169B","name":"JILIN-01 KUANFU 02B 2","alt_names":[],"object_type":"PAYLOAD","status":"ACTIVE","operator":null,"country":"PRC","launch_date":"2024-09-20","launch_site_code":"TAISC","launch_vehicle":null,"mission":null,"orbit_class":"UNKNOWN","rcs_meters":null,"size_class":null,"mass_kg":null,"dimensions":null,"purposes":[],"wikipedia_slug":null,"has_3d_model":false,"image_url":null,"decayed_at":null,"tle_current":{"epoch":"2026-09-22T21:28:59.017728Z","epoch_age_seconds":87730,"freshness":"FRESH","line1":"1 61190U 24169B   26265.89512752  .00002058  00000+0  13261-3 0  9999","line2":"2 61190  97.5539 353.3156 0007409  50.6865 309.5019 15.09411552110566","mean_motion":15.09411552,"eccentricity":0.0007409,"inclination_deg":97.5539,"raan_deg":353.3156,"arg_perigee_deg":50.6865,"mean_anomaly_deg":309.5019,"bstar":0.00013261,"rev_number":11056,"period_min":95.401416405749,"perigee_km":532.87277081012,"apogee_km":543.12109807418,"semimajor_km":6916.1339344421,"source":"CELESTRAK","updated_at":"2026-09-23T09:00:20.812314Z"}}}